FENGYUN 2G DEB

基本信息
目录编号:
43646
目录名称:
FENGYUN 2G DEB
国际标识:
2014-090D
轨道中心:
EARTH
物体状态:
在轨
发射日期:
2014-12-31 UTC
轨道信息
数据来源: 国际轨道数据
星历时间: 2026-07-10T13:18:05+0800
半长轴: 42177.544km
偏心率: 0.0207958
轨道倾角: 7.592°
近地点辐角: 291.745°
升交点赤经: 67.984°
平近点角: 65.990°
近地点: 34922.291km
远地点: 36676.523km
周期: 1436.752分钟
每日圈数: 1.002261
详细信息
发射场:
XSC
轨道高度:
MEO
数据来源:
AOE Integration Group
参考系:
TEME
时间系统:
UTC
历元类型:
SGP4
2D轨道图
3D轨道图
轨道高度分析图
轨道倾角分析图
轨道综合分析图
查看轨道综合分析图